�������l�o���
Date,Time,MP-1(��Sv/h),MP-2(��Sv/h),MP-3(��Sv/h),MP-4(��Sv/h),MP-5(��Sv/h),MP-6(��Sv/h),MP-7(��Sv/h),MP-8(��Sv/h),����,����(m/s),���J
2018/10/28,00:00,0.768,1.155,0.817,1.445,1.044,0.456,0.801,0.759,�k,3.6,��
2018/10/28,00:10,0.768,1.156,0.815,1.446,1.045,0.457,0.801,0.758,�k,3.6,��
2018/10/28,00:20,0.770,1.153,0.816,1.447,1.044,0.456,0.802,0.757,�k,3.1,��
2018/10/28,00:30,0.767,1.156,0.815,1.446,1.045,0.455,0.799,0.758,�k�k��,3.0,��
2018/10/28,00:40,0.768,1.154,0.817,1.448,1.046,0.455,0.801,0.758,�k�k��,3.5,��
2018/10/28,00:50,0.768,1.155,0.815,1.447,1.043,0.456,0.801,0.758,�k�k��,2.6,��
2018/10/28,01:00,0.768,1.153,0.816,1.447,1.045,0.454,0.802,0.758,�k�k��,3.2,��
2018/10/28,01:10,0.768,1.155,0.816,1.448,1.045,0.456,0.802,0.758,�k�k��,3.9,��
2018/10/28,01:20,0.769,1.153,0.816,1.447,1.043,0.455,0.803,0.759,�k,4.6,��
2018/10/28,01:30,0.770,1.154,0.816,1.448,1.044,0.455,0.801,0.758,�k,4.3,��
2018/10/28,01:40,0.769,1.155,0.816,1.447,1.047,0.455,0.801,0.759,�k,3.6,��
2018/10/28,01:50,0.768,1.155,0.816,1.449,1.045,0.454,0.801,0.758,�k,3.5,��
2018/10/28,02:00,0.769,1.154,0.815,1.449,1.046,0.457,0.802,0.758,�k,3.4,��
2018/10/28,02:10,0.769,1.153,0.816,1.448,1.046,0.456,0.800,0.760,�k,3.5,��
2018/10/28,02:20,0.769,1.155,0.816,1.448,1.045,0.455,0.801,0.757,�k�k��,4.6,��
2018/10/28,02:30,0.769,1.156,0.816,1.448,1.046,0.456,0.802,0.759,�k��,4.8,��
2018/10/28,02:40,0.770,1.153,0.817,1.448,1.046,0.456,0.801,0.759,�k��,4.6,��
2018/10/28,02:50,0.771,1.154,0.815,1.449,1.048,0.455,0.801,0.758,�k��,4.6,��
2018/10/28,03:00,0.770,1.156,0.818,1.449,1.046,0.456,0.801,0.758,�k��,5.2,��
2018/10/28,03:10,0.769,1.154,0.817,1.446,1.045,0.455,0.801,0.758,�k��,5.2,��
2018/10/28,03:20,0.770,1.154,0.817,1.448,1.046,0.456,0.801,0.757,�k��,3.9,��
2018/10/28,03:30,0.769,1.152,0.817,1.449,1.043,0.456,0.802,0.756,�k��,5.4,��
2018/10/28,03:40,0.769,1.152,0.816,1.448,1.045,0.456,0.800,0.758,�k��,7.6,��
2018/10/28,03:50,0.770,1.154,0.817,1.448,1.046,0.455,0.801,0.758,���k��,6.0,��
2018/10/28,04:00,0.768,1.158,0.815,1.449,1.045,0.457,0.801,0.759,���k��,5.8,��
2018/10/28,04:10,0.770,1.154,0.817,1.447,1.045,0.456,0.800,0.758,�k��,3.7,��
2018/10/28,04:20,0.770,1.152,0.816,1.451,1.047,0.455,0.800,0.758,�k��,3.4,��
2018/10/28,04:30,0.771,1.153,0.816,1.448,1.045,0.456,0.802,0.759,�k��,3.3,��
2018/10/28,04:40,0.769,1.155,0.816,1.447,1.046,0.457,0.799,0.758,�k��,2.8,��
2018/10/28,04:50,0.770,1.154,0.816,1.446,1.045,0.457,0.800,0.758,���k��,3.7,��
2018/10/28,05:00,0.768,1.154,0.815,1.451,1.045,0.455,0.799,0.760,���k��,3.4,��
2018/10/28,05:10,0.769,1.156,0.818,1.449,1.043,0.457,0.800,0.758,���k��,3.9,��
2018/10/28,05:20,0.767,1.154,0.817,1.448,1.045,0.457,0.801,0.759,���k��,4.2,��
2018/10/28,05:30,0.768,1.153,0.815,1.448,1.047,0.456,0.800,0.758,���k��,3.3,��
2018/10/28,05:40,0.770,1.154,0.817,1.450,1.044,0.456,0.802,0.760,�k��,3.3,��
2018/10/28,05:50,0.769,1.153,0.817,1.451,1.043,0.457,0.802,0.758,���k��,3.3,��
2018/10/28,06:00,0.768,1.155,0.816,1.449,1.046,0.457,0.801,0.759,���k��,4.6,��
2018/10/28,06:10,0.769,1.153,0.816,1.448,1.046,0.457,0.800,0.759,���k��,4.8,��
2018/10/28,06:20,0.768,1.154,0.816,1.451,1.045,0.456,0.802,0.759,���k��,3.9,��
2018/10/28,06:30,0.769,1.152,0.816,1.452,1.046,0.455,0.801,0.760,���k��,3.8,��
2018/10/28,06:40,0.771,1.153,0.815,1.449,1.046,0.457,0.801,0.757,���k��,5.0,��
2018/10/28,06:50,0.769,1.156,0.815,1.450,1.047,0.455,0.802,0.759,���k��,3.8,��
2018/10/28,07:00,0.771,1.157,0.816,1.451,1.044,0.457,0.801,0.758,���k��,4.7,��
2018/10/28,07:10,0.769,1.157,0.816,1.453,1.045,0.456,0.801,0.758,���k��,4.3,��
2018/10/28,07:20,0.769,1.153,0.818,1.450,1.047,0.457,0.800,0.760,�k��,3.7,��
2018/10/28,07:30,0.769,1.152,0.817,1.450,1.048,0.457,0.802,0.758,�k��,3.7,��
2018/10/28,07:40,0.771,1.157,0.817,1.451,1.047,0.457,0.800,0.760,�k��,3.1,��
2018/10/28,07:50,0.770,1.157,0.818,1.452,1.046,0.457,0.801,0.759,���k��,3.2,��
2018/10/28,08:00,0.770,1.157,0.818,1.452,1.044,0.457,0.801,0.760,�k��,2.9,��
2018/10/28,08:10,0.772,1.159,0.817,1.451,1.049,0.458,0.801,0.760,���k��,2.9,��
2018/10/28,08:20,0.769,1.156,0.818,1.450,1.049,0.458,0.800,0.761,�k��,2.9,��
2018/10/28,08:30,0.770,1.155,0.818,1.449,1.048,0.457,0.800,0.759,���k��,2.0,��
2018/10/28,08:40,0.771,1.154,0.818,1.452,1.046,0.457,0.801,0.761,���k��,3.8,��
2018/10/28,08:50,0.769,1.156,0.818,1.455,1.049,0.458,0.800,0.760,���k��,2.5,��
2018/10/28,09:00,0.770,1.154,0.820,1.455,1.048,0.457,0.802,0.759,��,2.8,��
2018/10/28,09:10,0.769,1.154,0.820,1.455,1.047,0.458,0.803,0.762,���k��,2.6,��
2018/10/28,09:20,0.767,1.155,0.818,1.452,1.047,0.459,0.801,0.761,���k��,2.8,��
2018/10/28,09:30,0.770,1.157,0.818,1.454,1.048,0.459,0.801,0.761,���k��,2.6,��
2018/10/28,09:40,0.771,1.158,0.820,1.458,1.050,0.458,0.802,0.760,��,2.0,��
2018/10/28,09:50,0.770,1.158,0.819,1.452,1.051,0.458,0.802,0.761,��,2.3,��
2018/10/28,10:00,0.770,1.158,0.819,1.453,1.048,0.456,0.802,0.759,�k�k��,1.7,��
2018/10/28,10:10,0.771,1.157,0.820,1.456,1.047,0.456,0.802,0.760,�k�k��,1.2,��
2018/10/28,10:20,0.771,1.158,0.819,1.454,1.049,0.457,0.803,0.760,�k�k��,1.2,��
2018/10/28,10:30,0.772,1.157,0.821,1.454,1.051,0.456,0.803,0.760,�k�k��,1.2,��
2018/10/28,10:40,0.772,1.161,0.819,1.456,1.050,0.456,0.804,0.759,�k�k��,2.2,��
2018/10/28,10:50,0.771,1.160,0.818,1.455,1.050,0.458,0.802,0.758,�k�k��,1.7,��
2018/10/28,11:00,0.774,1.160,0.819,1.454,1.052,0.457,0.803,0.758,���k��,3.1,��
2018/10/28,11:10,0.773,1.162,0.819,1.453,1.053,0.458,0.802,0.759,���k��,3.1,��
2018/10/28,11:20,0.771,1.163,0.820,1.456,1.052,0.459,0.803,0.760,���k��,2.9,��
2018/10/28,11:30,0.772,1.162,0.820,1.458,1.053,0.456,0.804,0.758,��,3.0,��
2018/10/28,11:40,0.772,1.163,0.821,1.456,1.048,0.457,0.803,0.759,���쓌,3.5,��
2018/10/28,11:50,0.772,1.163,0.819,1.457,1.050,0.459,0.802,0.758,���쓌,2.3,��
2018/10/28,12:00,0.772,1.164,0.821,1.454,1.052,0.456,0.801,0.759,�쓌,3.9,��
2018/10/28,12:10,0.772,1.164,0.820,1.456,1.052,0.458,0.802,0.759,�쓌,3.9,��
2018/10/28,12:20,0.774,1.164,0.821,1.455,1.055,0.460,0.803,0.756,�쓌,4.0,��
2018/10/28,12:30,0.773,1.165,0.822,1.457,1.054,0.458,0.803,0.759,�쓌,3.4,��
2018/10/28,12:40,0.774,1.165,0.821,1.456,1.051,0.458,0.804,0.758,�쓌,2.6,��
2018/10/28,12:50,0.772,1.164,0.822,1.458,1.054,0.458,0.805,0.760,���쓌,3.3,��
2018/10/28,13:00,0.773,1.164,0.821,1.455,1.054,0.458,0.804,0.758,���쓌,3.5,��
2018/10/28,13:10,0.773,1.167,0.819,1.455,1.055,0.458,0.804,0.758,�쓌,2.8,��
2018/10/28,13:20,0.773,1.167,0.824,1.458,1.056,0.459,0.805,0.760,��쓌,3.0,��
2018/10/28,13:30,0.774,1.166,0.820,1.456,1.055,0.458,0.804,0.759,�쓌,3.6,��
2018/10/28,13:40,0.772,1.168,0.822,1.456,1.053,0.459,0.804,0.757,�쓌,3.1,��
2018/10/28,13:50,0.774,1.167,0.823,1.455,1.056,0.457,0.806,0.759,���쓌,2.5,��
2018/10/28,14:00,0.774,1.167,0.823,1.457,1.055,0.458,0.804,0.759,�쓌,3.4,��
2018/10/28,14:10,0.776,1.169,0.824,1.457,1.055,0.457,0.803,0.758,��쓌,3.4,��
2018/10/28,14:20,0.773,1.168,0.823,1.458,1.057,0.459,0.805,0.760,��쓌,4.1,��
2018/10/28,14:30,0.775,1.167,0.823,1.458,1.058,0.459,0.803,0.758,���쓌,4.1,��
2018/10/28,14:40,0.774,1.169,0.826,1.460,1.057,0.460,0.803,0.759,�쓌,4.3,��
2018/10/28,14:50,0.773,1.169,0.823,1.458,1.057,0.459,0.803,0.761,�쓌,4.0,��
2018/10/28,15:00,0.776,1.170,0.823,1.460,1.059,0.461,0.803,0.759,��쓌,3.7,��
2018/10/28,15:10,0.774,1.169,0.825,1.459,1.057,0.459,0.801,0.760,��쓌,4.4,��
2018/10/28,15:20,0.774,1.168,0.823,1.457,1.057,0.460,0.805,0.760,�쓌,3.9,��
2018/10/28,15:30,0.774,1.170,0.825,1.460,1.058,0.460,0.804,0.757,�쓌,3.7,��
2018/10/28,15:40,0.773,1.169,0.823,1.463,1.056,0.462,0.805,0.760,��쓌,4.0,��
2018/10/28,15:50,0.774,1.168,0.823,1.458,1.055,0.461,0.804,0.760,��쓌,2.9,��
2018/10/28,16:00,0.773,1.169,0.823,1.461,1.056,0.461,0.805,0.759,��쓌,3.4,��
2018/10/28,16:10,0.774,1.167,0.822,1.456,1.057,0.463,0.805,0.760,��쓌,2.6,��
2018/10/28,16:20,0.774,1.171,0.823,1.457,1.056,0.462,0.805,0.760,�쓌,3.3,��
2018/10/28,16:30,0.775,1.171,0.822,1.457,1.055,0.463,0.805,0.760,�쓌,3.3,��
2018/10/28,16:40,0.774,1.171,0.825,1.457,1.057,0.463,0.807,0.761,��쓌,3.2,��
2018/10/28,16:50,0.777,1.175,0.825,1.456,1.057,0.464,0.805,0.761,��쓌,3.5,��
2018/10/28,17:00,0.777,1.173,0.825,1.460,1.057,0.463,0.805,0.761,�쓌,2.6,��
2018/10/28,17:10,0.777,1.174,0.826,1.457,1.056,0.462,0.805,0.761,��쓌,2.6,��
2018/10/28,17:20,0.777,1.172,0.826,1.459,1.057,0.462,0.806,0.762,��쓌,3.2,��
2018/10/28,17:30,0.777,1.174,0.825,1.458,1.059,0.463,0.805,0.761,��,3.1,��
2018/10/28,17:40,0.777,1.172,0.825,1.461,1.059,0.463,0.806,0.761,��,3.2,��
2018/10/28,17:50,0.776,1.171,0.823,1.458,1.059,0.463,0.805,0.761,��,2.6,��
2018/10/28,18:00,0.775,1.173,0.824,1.458,1.060,0.462,0.804,0.760,��,2.5,��
2018/10/28,18:10,0.776,1.172,0.824,1.457,1.057,0.463,0.807,0.763,��,2.6,��
2018/10/28,18:20,0.774,1.172,0.824,1.459,1.059,0.461,0.804,0.759,��,2.8,��
2018/10/28,18:30,0.775,1.173,0.826,1.461,1.060,0.461,0.804,0.762,��쐼,2.9,��
2018/10/28,18:40,0.776,1.172,0.822,1.457,1.059,0.462,0.804,0.761,��,3.0,��
2018/10/28,18:50,0.776,1.170,0.824,1.458,1.059,0.462,0.804,0.760,��쐼,3.0,��
2018/10/28,19:00,0.776,1.167,0.824,1.458,1.058,0.460,0.805,0.761,��쐼,3.1,��
2018/10/28,19:10,0.774,1.169,0.824,1.459,1.060,0.460,0.805,0.760,�쐼,3.4,��
2018/10/28,19:20,0.776,1.169,0.823,1.457,1.058,0.461,0.805,0.760,��쐼,3.5,��
2018/10/28,19:30,0.776,1.169,0.825,1.460,1.060,0.462,0.803,0.759,��쐼,3.7,��
2018/10/28,19:40,0.775,1.169,0.823,1.460,1.059,0.462,0.806,0.762,�쐼,3.6,��
2018/10/28,19:50,0.775,1.170,0.824,1.458,1.060,0.462,0.805,0.761,�쐼,3.5,��
2018/10/28,20:00,0.777,1.169,0.823,1.458,1.061,0.460,0.803,0.761,�쐼,3.5,��
2018/10/28,20:10,0.777,1.169,0.825,1.458,1.056,0.461,0.805,0.762,�쐼,3.5,��
2018/10/28,20:20,0.777,1.167,0.825,1.459,1.059,0.461,0.803,0.761,�쐼,3.2,��
2018/10/28,20:30,0.776,1.169,0.825,1.458,1.059,0.460,0.804,0.761,�쐼,3.3,��
2018/10/28,20:40,0.775,1.169,0.824,1.459,1.061,0.462,0.804,0.763,�쐼,3.2,��
2018/10/28,20:50,0.777,1.168,0.824,1.461,1.059,0.462,0.805,0.760,�쐼,3.1,��
2018/10/28,21:00,0.776,1.169,0.824,1.459,1.061,0.460,0.803,0.761,��쐼,2.8,��
2018/10/28,21:10,0.775,1.172,0.823,1.457,1.058,0.462,0.804,0.762,�쐼,3.5,��
2018/10/28,21:20,0.775,1.169,0.825,1.459,1.058,0.462,0.804,0.761,�쐼,4.2,��
2018/10/28,21:30,0.776,1.168,0.823,1.457,1.059,0.460,0.804,0.761,�쐼,4.4,��
2018/10/28,21:40,0.774,1.166,0.825,1.456,1.059,0.460,0.804,0.762,�쐼,4.2,��
2018/10/28,21:50,0.775,1.167,0.823,1.460,1.058,0.461,0.804,0.760,���쐼,3.5,��
2018/10/28,22:00,0.775,1.167,0.824,1.458,1.059,0.460,0.804,0.761,��,3.1,��
2018/10/28,22:10,0.776,1.167,0.825,1.461,1.060,0.461,0.803,0.760,��,2.2,��
2018/10/28,22:20,0.777,1.167,0.824,1.457,1.059,0.461,0.804,0.760,��,2.3,��
2018/10/28,22:30,0.773,1.166,0.824,1.458,1.060,0.459,0.803,0.761,��,2.0,��
2018/10/28,22:40,0.775,1.168,0.822,1.460,1.060,0.459,0.803,0.762,��,2.3,��
2018/10/28,22:50,0.776,1.166,0.823,1.459,1.059,0.460,0.802,0.761,��,1.7,��
2018/10/28,23:00,0.774,1.167,0.825,1.458,1.060,0.459,0.803,0.761,���k��,1.7,��
2018/10/28,23:10,0.775,1.168,0.824,1.458,1.062,0.462,0.806,0.760,���k��,2.0,��
2018/10/28,23:20,0.775,1.170,0.823,1.458,1.059,0.459,0.804,0.762,��,1.9,��
2018/10/28,23:30,0.775,1.169,0.822,1.460,1.059,0.460,0.803,0.761,��,2.0,��
2018/10/28,23:40,0.778,1.167,0.823,1.460,1.058,0.458,0.804,0.760,��,1.4,��
2018/10/28,23:50,0.776,1.167,0.823,1.458,1.056,0.459,0.804,0.762,���k��,1.5,��
